STARLINK-1460, 45676

Orbit data source: Space-Track

STARLINK-1460, 45676 is a payload satellite owned by SpaceX/Seattle (US) in LEO that was launched on Thu, 04 Jun 2020 UTC via an FALCON 9 launch vehicle from the Air Force Eastern Test Range (AFETR). Payload-class satellites include a variety of spacecraft equipped with specific instruments for various scientific and technological missions. These include communications satellites like Starlink; space stations such as the ISS; scientific satellites like the Hubble; Earth observation satellites from companies like Planet Labs, Umbra, and HawkEye 360; GPS; miniature CubeSats for education and research; and military/defense satellites.

Loading next visibility...
Identifier
45676, 2020-035V
Orbit
LEO
Country
Flag of USUS
Related business
Manufacturer
SpaceX/Seattle
Mission
Operational Commercial Communications
Bus & Motor
STARLINK, Unknown motor
Mass
260 kg wet, ~248 kg dry
Launch date (UTC)
2020-06-04 (6 years ago)
Launch vehicle
FALCON 9
Launch site
Air Force Eastern Test Range (AFETR)
Object type
Payload
Rocket body
Debris
Shape & HBR
Box + 1 Pan, 10.1 m
Radar Cross Section
13.562 m², Large (>1 m²)

Expand to show TLE details & history
Last TLE update: 3 hours ago

TLE from 3 hours ago
0 STARLINK-1460
1 45676U 20035V   26119.20737100  .00046657  00000-0  15012-2 0  9996
2 45676  53.1585 190.1829 0002683  24.9787 335.1344 15.31798129326452
Epoch: 2026-04-29T04:58Z
TLE epoch observation values (Epoch: 2026-04-29T04:58:36.854Z)
Latitude
-0°
Longitude
-101.6423°
Altitude
469.681 km
Speed
7.633 km/s
True Right ascension
12h 40m 43s
True Declination
0° 00' 00"
Sunlit
Object was in full shadow at epoch
Visualization orbit readout
Latitude
Unknown
Longitude
Unknown
Altitude
Unknown
Speed
Unknown
Apparent Right ascension
Unknown
Apparent Declination
Unknown
Sunlit
N/A
Visualization observer readout
Local Sidereal Time
15:31:12
Azimuth
Unknown
Elevation
Unknown
Doppler factor
Unknown
Orbital elements
Apogee altitude
472.542 km
Perigee altitude
468.867 km
Semi-major axis
6,848.841 km
Eccentricity
0.00027
Inclination
53.1585°
RAAN
190.1829°
Arg. of periapsis
24.9787°
True anomaly
335.12147°
Mean anomaly
335.1344°
Eccentric anomaly
335.12793°
Mean motion
3.82928 °/min
Orbital period
94.01 mins
BSTAR
0.0015012
Loading maneuver chart data...
Computing Atmospheric mass density...

Documentation

Showing up to 5 results
|